STARLINK-2681 (48465 NORAD) Tracking and Keplerian Element Data

This shows tracking and keplerian element data for the satellite.

Feedback or suggestion? Click here.




ElementValue
Catalog48465
NameSTARLINK-2681
Epoch Orbit1404
Epoch Day211.25001157
Epoch Year2021
RAAN188.8601
Inclination53.053
Eccentricity0.0001654
Argument of Perigee63.1496
Mean Anonmoly60.3278
Mean Motion15.0639166
Decay Rate-8.43E-05
L11 48465U 21040AP 21211.25001157 -.00008430 00000-0 -54783-3 0 9999
L22 48465 53.0530 188.8601 0001654 63.1496 60.3278 15.06391660 14044

Live tracking and technical data element details for STARLINK-2681 (NORAD 48465). STARLINK-2681 can be tracked NOW for your location showing map with azimuth and elevation plus other details from your city location.

Track the satellite on the map from your city or location and see movement details for azimuth, elevation, latitude, longitude, range, height, and movement on the map or in text.







IsCatalogInMostPopularTable: catalog: 48465, numindb: 24
Update: records affected: 1



GetName: 48465 STARLINK-2681

Hit Count: updated at: Sat, 31 Jul 2021 16:02:54 GMT